Orbital Elements at Epoch 2459000.5 (2020-May-31.0) TDB
Reference: JPL 22 (heliocentric ecliptic J2000)
Element | Value | Uncertainty (1-sigma) | Units |
e | .2306740653502636 | 4.5518e-08 | |
a | 2.404369074900946 | 1.0748e-08 | au |
q | 1.849743485791093 | 1.1283e-07 | au |
i | 2.945752556207682 | 4.736e-06 | deg |
node | 134.6722076744003 | 7.8205e-05 | deg |
peri | 216.3829376958908 | 7.8893e-05 | deg |
M | 58.68855154180542 | 8.3944e-06 | deg |
tp | 2458778.501000439660 (2019-Oct-22.00100044) | 3.1821e-05 | TDB |
period | 1361.758600990406 3.73 | 9.1313e-06 2.5e-08 | d yr |
n | .2643640361354591 | 1.7727e-09 | deg/d |
Q | 2.9589946640108 | 1.3228e-08 | au |
|
| | Orbit Determination Parameters
Additional Information
|